This demonstration page uses our WeatherBlox Daily Observations layout. Learn more.

Left ArrowRight Arrow

Hourly Observations for March 28, 2019

Temp ( °F °C ) Dew Point ( °F °C ) Humidity (%) Winds ( mph kmh ) Pressure ( in mb ) Visibility ( mi km ) Precip ( " mm )
12:52 am 00:52 Partly Cloudy 55 12.8 49 9.4 80 80 N 9 15 29.93 1013 10 16 0.00 0.00
1:52 am 01:52 Partly Cloudy 53 11.7 48 8.9 83 83 N 9 15 29.94 1014 10 16 0.00 0.00
2:52 am 02:52 Partly Cloudy 53 11.7 47 8.3 80 80 N 12 19 29.96 1015 10 16 0.00 0.00
3:52 am 03:52 Mostly Cloudy 51 10.6 46 7.8 83 83 N 12 19 29.97 1015 10 16 0.00 0.00
4:52 am 04:52 Mostly Cloudy 50 10 41 5 71 71 N 13 20 29.99 1016 10 16 0.00 0.00
5:52 am 05:52 Mostly Cloudy 47 8.3 40 4.4 77 77 N 10 17 30.01 1016 10 16 0.00 0.00
6:52 am 06:52 Mostly Cloudy 46 7.8 38 3.3 73 73 N 14 22 30.03 1017 10 16 0.00 0.00
7:52 am 07:52 Mostly Cloudy 44 6.7 37 2.8 76 76 N 18 30 30.06 1018 10 16 0.00 0.00
8:52 am 08:52 Cloudy 44 6.7 36 2.2 73 73 NNE 16 26 30.07 1018 10 16 0.00 0.00
9:52 am 09:52 Cloudy 43 6.1 36 2.2 76 76 NNE 8 13 30.09 1019 10 16 0.00 0.00
10:52 am 10:52 Cloudy 45 7.2 36 2.2 71 71 NNE 14 22 30.04 1017 10 16 0.00 0.00
11:52 am 11:52 Cloudy 46 7.8 36 2.2 68 68 N 14 22 30.09 1019 10 16 0.00 0.00
12:52 pm 12:52 Cloudy 46 7.8 36 2.2 68 68 NNE 22 35 30.06 1018 10 16 0.00 0.00
1:52 pm 13:52 Cloudy 49 9.4 36 2.2 61 61 NNE 14 22 30.11 1020 10 16 0.00 0.00
2:52 pm 14:52 Cloudy 52 11.1 36 2.2 55 55 NNE 16 26 30.08 1019 10 16 0.00 0.00
3:52 pm 15:52 Cloudy 52 11.1 36 2.2 55 55 NE 16 26 30.05 1018 10 16 0.00 0.00
4:52 pm 16:52 Cloudy 53 11.7 35 1.7 51 51 NNE 14 22 30.06 1018 10 16 0.00 0.00
5:52 pm 17:52 Cloudy 54 12.2 36 2.2 51 51 NNE 13 20 30.07 1018 10 16 0.00 0.00
6:52 pm 18:52 Cloudy 53 11.7 35 1.7 51 51 NNE 15 24 30.09 1019 10 16 0.00 0.00
7:52 pm 19:52 Cloudy 51 10.6 36 2.2 56 56 N 12 19 30.12 1020 10 16 0.00 0.00
8:52 pm 20:52 Cloudy 50 10 35 1.7 57 57 NNE 9 15 30.15 1021 10 16 0.00 0.00
9:52 pm 21:52 Cloudy 49 9.4 35 1.7 59 59 N 17 28 30.18 1022 10 16 0.00 0.00
10:52 pm 22:52 Cloudy 47 8.3 32 0 56 56 N 12 19 30.18 1022 10 16 0.00 0.00
11:52 pm 23:52 Cloudy 47 8.3 33 0.6 59 59 NNE 10 17 30.17 1022 10 16 0.00 0.00

Powered by AerisWeather